Location: *
(51.0333°S, 178.4667°E)
Time: 15:22:01
(UTC+00:00)

Cosmos 1745 Rocket - Pass Details

Date: 15 November 2019
Orbit: 953 x 998 km, 83.0° (Epoch: 06 December)

Event Time Altitude Azimuth Distance (km) Brightness Sun altitude
Rises 10:23:09 0° 189° (S) 3,676 8.6 -17.9°
Reaches altitude 10° 10:25:41 10° 186° (S) 2,727 7.5 -18.0°
Maximum altitude 10:31:55 69° 102° (ESE) 1,039 4.1 -18.4°
Enters shadow 10:35:06 31° 26° (NNE) 1,656 4.6 -18.5°
